QPF
0.00 0.00 0.00 0.00 0.00 0.00 0.00 0.00 0.00 0.00 0.00 0.00 0.00 0.00 0.00 0.00 0.00 0.00 0.00 0.00 0.00 0.00 0.00 0.00 0.05 0.04 0.00 0.09 0.01 0.02 0.06 0.05 0.12 0.13 0.00 0.00 0.00 0.00 0.00 0.01 0.04 0.02 0.00
0.00 0.00 0.00 0.00 0.00 0.00 0.00 0.00 0.00 0.00 0.00 0.00 0.00 0.00 0.00 0.00 0.00 0.00 0.00 0.00 0.12 0.05 0.02 0.07 0.03 0.05 0.00 0.03 0.01 0.00 0.00 0.02 0.02 0.06 0.02 0.03 0.06 0.00 0.00 0.01 0.00 0.00 0.00
0.00 0.00 0.00 0.00 0.00 0.00 0.00 0.00 0.00 0.00 0.00 0.00 0.00 0.00 0.00 0.00 0.00 0.00 0.00 0.00 0.00 0.00 0.05 0.09 0.06 0.01 0.00 0.00 0.01 0.00 0.00 0.00 0.00 0.03 0.02 0.00 0.07 0.02 0.00 0.00 0.00 0.00 0.00
0.00 0.00 0.00 0.00 0.00 0.00 0.00 0.00 0.00 0.00 0.00 0.00 0.00 0.00 0.00 0.00 0.00 0.00 0.00 0.00 0.00 0.00 0.00 0.00 0.05 0.05 0.01 0.00 0.01 0.03 0.06 0.03 0.03 0.01 0.00 0.02 0.03 0.00 0.00 0.00 0.00 0.00 0.00
0.00 0.00 0.00 0.00 0.00 0.00 0.00 0.00 0.00 0.00 0.00 0.00 0.00 0.00 0.00 0.00 0.00 0.00 0.00 0.00 0.00 0.00 0.00 0.00 0.00 0.00 0.00 0.00 0.01 0.03 0.05 0.11 0.08 0.09 0.10 0.22 0.19 0.13 0.09 0.02 0.00 0.00 0.00
0.00 0.00 0.00 0.00 0.00 0.00 0.00 0.00 0.00 0.00 0.00 0.00 0.00 0.00 0.00 0.00 0.00 0.00 0.00 0.00 0.00 0.00 0.00 0.00 0.00 0.00 0.00 0.05 0.03 0.02 0.12 0.02 0.03 0.04 0.14 0.14 0.10 0.11 0.12 0.06 0.02 0.02 0.00
0.00 0.00 0.00 0.00 0.00 0.00 0.00 0.00 0.00 0.00 0.00 0.00 0.00 0.00 0.00 0.00 0.00 0.00 0.00 0.00 0.00 0.00 0.00 0.00 0.00 0.00 0.02 0.02 0.08 0.05 0.11 0.15 0.07 0.06 0.07 0.03 0.04 0.04 0.09 0.13 0.04 0.03 0.00
0.00 0.00 0.00 0.00 0.00 0.00 0.00 0.00 0.00 0.00 0.00 0.00 0.00 0.00 0.00 0.00 0.00 0.00 0.00 0.00 0.00 0.00 0.00 0.00 0.00 0.00 0.00 0.00 0.00 0.01 0.04 0.05 0.04 0.04 0.02 0.02 0.01 0.05 0.16 0.09 0.12 0.08 0.05
0.00 0.00 0.00 0.00 0.00 0.00 0.00 0.00 0.00 0.00 0.00 0.00 0.00 0.00 0.00 0.00 0.00 0.00 0.00 0.00 0.00 0.00 0.00 0.00 0.00 0.00 0.00 0.00 0.00 0.00 0.00 0.00 0.00 0.00 0.02 0.06 0.02 0.09 0.15 0.17 0.22 0.17 0.11
0.00 0.00 0.00 0.00 0.00 0.00 0.00 0.00 0.00 0.00 0.00 0.00 0.00 0.00 0.00 0.00 0.00 0.00 0.00 0.00 0.00 0.00 0.00 0.00 0.00 0.00 0.00 0.00 0.00 0.00 0.00 0.00 0.00 0.00 0.00 0.04 0.05 0.06 0.19 0.28 0.15 0.15 0.15
0.00 0.00 0.00 0.00 0.00 0.00 0.00 0.00 0.00 0.00 0.00 0.00 0.00 0.00 0.00 0.00 0.00 0.00 0.00 0.00 0.00 0.00 0.00 0.00 0.00 0.00 0.01 0.00 0.00 0.00 0.00 0.00 0.00 0.00 0.00 0.02 0.02 0.04 0.05 0.04 0.07 0.10 0.20
0.00 0.00 0.00 0.00 0.00 0.00 0.00 0.00 0.00 0.00 0.00 0.00 0.00 0.00 0.00 0.00 0.00 0.00 0.00 0.00 0.00 0.00 0.00 0.00 0.02 0.03 0.05 0.05 0.01 0.00 0.00 0.00 0.00 0.00 0.00 0.00 0.00 0.00 0.00 0.00 0.02 0.09 0.15
0.00 0.00 0.00 0.00 0.00 0.00 0.00 0.00 0.00 0.00 0.00 0.00 0.00 0.00 0.00 0.00 0.00 0.00 0.00 0.00 0.00 0.00 0.00 0.00 0.04 0.07 0.09 0.09 0.07 0.04 0.02 0.00 0.00 0.00 0.00 0.00 0.00 0.00 0.00 0.00 0.00 0.01 0.02
0.00 0.00 0.00 0.00 0.00 0.00 0.00 0.00 0.00 0.00 0.00 0.00 0.00 0.00 0.00 0.00 0.00 0.00 0.00 0.00 0.00 0.00 0.00 0.05 0.11 0.14 0.15 0.12 0.14 0.14 0.10 0.06 0.01 0.00 0.00 0.00 0.00 0.00 0.00 0.00 0.00 0.00 0.00
0.00 0.00 0.00 0.00 0.00 0.00 0.00 0.00 0.00 0.00 0.00 0.00 0.00 0.00 0.00 0.00 0.00 0.00 0.00 0.00 0.00 0.00 0.03 0.13 0.15 0.20 0.21 0.18 0.18 0.14 0.07 0.04 0.03 0.02 0.01 0.00 0.00 0.00 0.00 0.00 0.00 0.00 0.00
0.00 0.00 0.00 0.00 0.00 0.00 0.00 0.00 0.00 0.00 0.00 0.00 0.00 0.00 0.00 0.00 0.00 0.01 0.01 0.01 0.03 0.06 0.09 0.11 0.13 0.12 0.18 0.21 0.17 0.09 0.03 0.00 0.00 0.01 0.00 0.00 0.00 0.00 0.00 0.00 0.00 0.00 0.00
0.00 0.00 0.00 0.00 0.00 0.00 0.00 0.00 0.00 0.00 0.00 0.00 0.00 0.00 0.00 0.01 0.00 0.00 0.00 0.00 0.00 0.00 0.00 0.01 0.03 0.04 0.09 0.17 0.05 0.03 0.00 0.00 0.00 0.01 0.01 0.00 0.00 0.00 0.00 0.00 0.00 0.00 0.00
0.00 0.00 0.00 0.00 0.00 0.00 0.00 0.00 0.00 0.00 0.00 0.00 0.00 0.00 0.00 0.00 0.00 0.00 0.00 0.00 0.00 0.00 0.00 0.00 0.00 0.00 0.03 0.05 0.01 0.00 0.00 0.00 0.00 0.00 0.00 0.00 0.00 0.00 0.00 0.00 0.00 0.00 0.00
0.00 0.00 0.00 0.00 0.00 0.00 0.00 0.00 0.00 0.00 0.00 0.00 0.00 0.00 0.00 0.00 0.00 0.00 0.00 0.00 0.00 0.00 0.00 0.00 0.00 0.00 0.00 0.00 0.00 0.00 0.00 0.00 0.00 0.00 0.00 0.00 0.00 0.00 0.00 0.00 0.00 0.00 0.00
0.00 0.00 0.00 0.00 0.00 0.00 0.00 0.00 0.00 0.00 0.00 0.00 0.00 0.00 0.00 0.00 0.00 0.00 0.00 0.00 0.00 0.00 0.00 0.00 0.00 0.00 0.00 0.00 0.00 0.00 0.00 0.00 0.00 0.00 0.00 0.02 0.01 0.03 0.01 0.00 0.00 0.00 0.00
0.00 0.00 0.00 0.00 0.00 0.00 0.00 0.00 0.00 0.00 0.00 0.00 0.00 0.00 0.00 0.00 0.00 0.00 0.00 0.00 0.00 0.00 0.00 0.00 0.00 0.00 0.00 0.00 0.00 0.00 0.00 0.00 0.00 0.00 0.00 0.00 0.00 0.02 0.02 0.00 0.00 0.00 0.00
0.00 0.01 0.00 0.00 0.00 0.00 0.00 0.00 0.00 0.00 0.00 0.00 0.00 0.00 0.00 0.00 0.00 0.00 0.00 0.00 0.00 0.00 0.00 0.00 0.00 0.00 0.00 0.00 0.00 0.00 0.00 0.00 0.00 0.00 0.00 0.00 0.00 0.00 0.00 0.00 0.00 0.00 0.00
0.00 0.00 0.00 0.00 0.00 0.00 0.00 0.00 0.00 0.00 0.00 0.00 0.00 0.00 0.00 0.00 0.00 0.00 0.00 0.00 0.00 0.00 0.00 0.00 0.00 0.00 0.00 0.00 0.00 0.00 0.00 0.00 0.00 0.00 0.00 0.00 0.00 0.00 0.00 0.00 0.00 0.00 0.00
0.00 0.00 0.00 0.00 0.00 0.00 0.00 0.00 0.00 0.00 0.00 0.00 0.00 0.00 0.00 0.00 0.00 0.00 0.00 0.00 0.00 0.00 0.00 0.00 0.00 0.00 0.00 0.00 0.00 0.00 0.00 0.00 0.00 0.00 0.00 0.00 0.00 0.00 0.00 0.00 0.00 0.00 0.00
0.00 0.00 0.00 0.00 0.00 0.00 0.00 0.00 0.00 0.00 0.00 0.00 0.00 0.00 0.00 0.00 0.00 0.00 0.00 0.00 0.00 0.00 0.00 0.00 0.00 0.00 0.00 0.00 0.00 0.00 0.00 0.00 0.00 0.00 0.00 0.00 0.00 0.00 0.00 0.00 0.00 0.00 0.00
0.00 0.00 0.00 0.00 0.00 0.00 0.00 0.00 0.00 0.00 0.00 0.00 0.00 0.00 0.00 0.00 0.00 0.00 0.00 0.00 0.00 0.00 0.00 0.00 0.00 0.00 0.00 0.00 0.00 0.00 0.00 0.00 0.00 0.00 0.00 0.00 0.00 0.00 0.00 0.00 0.00 0.00 0.00
MSLP
1009.20 1009.85 1010.50 1011.02 1011.45 1012.26 1013.05 1013.91 1014.62 1015.13 1015.55 1015.70 1015.77 1015.62 1015.37 1015.51 1016.02 1016.23 1016.22 1016.56 1016.89 1016.88 1017.12 1016.98 1017.40 1017.42 1017.45 1017.62 1017.84 1017.69 1017.72 1017.68 1017.47 1017.80 1016.44 1015.58 1015.79 1015.57 1015.49 1015.85 1016.42 1016.64 1017.40
1008.27 1009.07 1009.71 1010.29 1010.90 1011.54 1012.40 1013.23 1013.98 1014.74 1015.29 1015.27 1015.32 1014.97 1014.95 1014.90 1015.07 1015.48 1015.82 1016.22 1016.75 1016.81 1017.04 1017.05 1017.15 1017.13 1017.10 1017.33 1017.44 1017.60 1017.34 1016.55 1016.65 1016.86 1016.15 1015.52 1015.61 1015.28 1015.23 1015.61 1015.68 1015.96 1016.35
1007.24 1008.08 1008.78 1009.27 1010.07 1010.66 1011.68 1012.50 1013.34 1013.97 1014.60 1014.67 1015.03 1015.26 1015.32 1015.38 1015.20 1015.34 1015.49 1015.50 1016.04 1016.45 1016.61 1016.93 1016.94 1017.02 1017.12 1016.53 1016.89 1017.15 1017.08 1016.54 1016.09 1016.16 1016.52 1015.40 1015.05 1015.03 1014.83 1014.81 1015.29 1015.37 1015.70
1006.23 1006.89 1007.64 1008.36 1008.90 1009.80 1010.75 1011.70 1012.73 1013.47 1014.16 1014.57 1014.34 1014.71 1014.64 1014.56 1014.37 1014.62 1014.57 1014.75 1015.23 1015.62 1015.78 1016.00 1016.34 1016.65 1016.43 1016.40 1016.41 1016.33 1016.61 1016.56 1016.07 1015.76 1015.55 1015.44 1015.78 1015.63 1015.01 1014.94 1014.61 1014.94 1014.91
1004.98 1005.64 1006.21 1007.04 1007.81 1008.87 1009.84 1010.81 1012.05 1012.90 1013.31 1013.91 1014.22 1014.28 1014.70 1014.26 1014.48 1014.45 1014.60 1015.00 1014.97 1015.12 1015.42 1015.55 1015.73 1016.00 1015.99 1015.69 1015.83 1015.97 1016.31 1016.43 1016.32 1016.05 1015.87 1016.13 1016.27 1016.45 1016.24 1015.42 1014.44 1014.44 1014.22
1003.60 1004.70 1005.34 1006.02 1006.97 1007.90 1009.12 1010.04 1011.31 1012.33 1013.04 1013.40 1013.94 1014.08 1013.96 1014.29 1013.91 1014.18 1014.29 1014.42 1014.25 1014.31 1014.75 1015.02 1015.21 1015.38 1015.53 1015.52 1015.62 1015.68 1015.81 1015.90 1015.75 1015.58 1015.81 1015.98 1015.81 1015.68 1016.01 1015.97 1015.28 1014.73 1014.24
1002.54 1003.52 1004.61 1005.29 1006.09 1007.11 1008.32 1009.37 1010.52 1011.62 1012.21 1012.60 1013.04 1013.65 1013.93 1014.12 1014.11 1014.31 1014.20 1014.09 1013.69 1013.46 1013.67 1014.29 1014.76 1014.84 1014.94 1014.99 1015.00 1015.21 1015.34 1015.46 1015.43 1015.35 1015.22 1015.05 1014.73 1014.68 1014.68 1015.45 1015.38 1015.01 1013.95
1001.53 1002.08 1003.21 1004.57 1005.51 1006.36 1007.47 1008.65 1009.55 1010.82 1011.49 1012.26 1012.86 1013.31 1013.66 1013.67 1013.74 1013.82 1013.82 1013.74 1013.56 1013.47 1013.69 1013.92 1014.18 1014.31 1014.31 1014.43 1014.48 1014.52 1014.57 1014.40 1014.65 1014.80 1014.95 1014.70 1014.12 1013.77 1013.92 1014.94 1015.36 1015.24 1014.34
1000.91 1001.73 1002.09 1003.50 1004.89 1006.02 1006.84 1007.89 1008.83 1009.93 1010.72 1011.49 1012.39 1012.94 1013.28 1013.46 1013.07 1013.31 1013.46 1013.72 1013.95 1013.88 1014.07 1014.19 1014.20 1014.13 1014.08 1014.18 1014.27 1014.17 1014.11 1014.24 1014.30 1014.22 1014.15 1014.28 1014.37 1013.78 1013.50 1013.93 1014.91 1015.36 1015.16
1001.37 1001.89 1002.37 1002.87 1004.28 1005.49 1006.46 1007.54 1008.39 1009.19 1009.96 1010.46 1011.41 1012.08 1012.56 1012.99 1013.12 1013.25 1013.30 1013.31 1013.35 1013.47 1013.66 1013.88 1013.94 1013.91 1013.97 1013.94 1013.95 1013.84 1013.74 1014.00 1014.07 1013.87 1013.75 1013.75 1013.68 1013.53 1014.12 1013.97 1014.66 1015.14 1015.29
1001.07 1001.77 1002.39 1003.18 1004.07 1005.17 1005.96 1006.90 1008.04 1008.81 1009.55 1010.16 1010.44 1011.24 1011.75 1012.28 1012.67 1012.83 1013.02 1013.21 1013.24 1013.27 1013.40 1013.52 1013.58 1013.53 1013.59 1013.68 1013.73 1013.70 1013.56 1013.60 1013.71 1013.77 1013.56 1013.63 1013.72 1013.66 1013.58 1013.90 1014.26 1014.53 1014.81
1001.45 1002.17 1002.95 1003.65 1004.40 1005.13 1005.79 1006.75 1007.64 1008.42 1009.08 1009.98 1010.21 1010.61 1011.39 1011.92 1011.87 1012.48 1012.71 1012.71 1012.72 1012.95 1012.99 1013.02 1013.08 1013.35 1013.29 1013.32 1013.25 1013.27 1012.91 1013.01 1013.21 1013.34 1013.30 1013.41 1013.56 1013.68 1013.96 1013.68 1013.49 1013.51 1013.92
1001.75 1002.32 1003.14 1004.29 1005.28 1005.84 1006.40 1006.94 1007.76 1008.08 1008.20 1009.31 1010.02 1010.51 1011.02 1011.33 1011.58 1011.66 1011.78 1011.89 1012.26 1012.58 1012.48 1012.41 1012.57 1012.78 1012.83 1012.91 1012.71 1012.88 1012.97 1012.56 1012.59 1012.67 1012.87 1012.86 1012.96 1013.04 1012.91 1012.96 1012.43 1011.93 1012.03
1001.86 1002.13 1003.01 1004.24 1005.59 1006.26 1007.03 1007.57 1007.98 1008.14 1007.78 1008.62 1009.23 1009.71 1010.13 1010.33 1010.86 1011.19 1011.54 1011.65 1011.73 1012.00 1012.14 1012.05 1012.23 1012.32 1012.47 1012.40 1012.52 1012.32 1012.40 1012.42 1012.15 1012.08 1012.08 1012.28 1012.25 1012.26 1012.34 1012.22 1011.89 1011.72 1011.62
1001.41 1002.08 1003.02 1004.67 1005.88 1006.60 1007.33 1007.77 1007.92 1008.57 1008.67 1009.14 1009.68 1010.11 1010.69 1010.81 1011.18 1011.51 1011.78 1011.92 1011.94 1011.88 1011.81 1011.85 1011.88 1012.11 1011.80 1012.00 1011.93 1011.99 1011.73 1011.78 1011.44 1011.55 1011.60 1011.36 1011.52 1011.62 1011.86 1011.82 1011.44 1011.43 1011.40
1001.01 1001.94 1003.04 1004.53 1005.49 1006.42 1007.16 1007.78 1008.10 1008.77 1009.41 1010.04 1010.41 1010.70 1011.09 1011.30 1011.37 1011.49 1011.76 1011.74 1011.84 1011.90 1011.82 1011.65 1011.62 1011.60 1011.77 1011.93 1012.07 1011.83 1011.56 1011.03 1010.94 1010.69 1010.60 1010.62 1010.51 1010.67 1010.98 1011.25 1011.43 1011.64 1011.62
1000.65 1001.53 1002.51 1003.76 1004.76 1005.86 1006.71 1007.50 1008.17 1008.89 1009.57 1010.08 1010.45 1010.70 1010.92 1011.07 1011.18 1011.32 1011.43 1011.51 1011.61 1011.62 1011.52 1011.39 1011.51 1011.65 1011.80 1012.15 1012.34 1012.23 1011.73 1011.07 1010.62 1010.40 1010.15 1009.90 1009.54 1009.45 1009.69 1010.25 1010.46 1010.73 1010.88
1000.18 1001.14 1001.79 1002.99 1004.21 1005.24 1006.26 1007.22 1008.16 1008.96 1009.50 1009.91 1010.08 1010.49 1010.87 1011.27 1011.59 1011.79 1011.96 1012.07 1012.07 1012.05 1012.04 1011.88 1011.77 1011.76 1011.59 1012.12 1012.33 1012.25 1011.99 1011.05 1010.28 1009.90 1009.85 1009.71 1009.48 1009.53 1009.49 1009.43 1009.43 1009.41 1009.21
999.23 1000.53 1001.37 1002.54 1003.88 1004.82 1006.21 1007.17 1007.86 1008.71 1009.23 1009.57 1010.14 1010.76 1011.12 1011.45 1011.68 1011.87 1011.96 1012.10 1012.15 1012.03 1011.86 1011.56 1011.45 1011.47 1011.65 1012.00 1011.78 1011.99 1011.55 1010.64 1009.96 1009.35 1009.09 1009.07 1009.21 1009.27 1009.35 1009.47 1009.26 1009.17 1008.86
998.11 999.87 1001.09 1002.51 1004.05 1005.01 1005.98 1006.93 1007.63 1008.49 1009.18 1009.86 1010.45 1010.88 1011.27 1011.53 1011.68 1012.04 1012.25 1012.12 1012.00 1011.85 1011.57 1011.54 1011.57 1011.42 1011.10 1011.12 1011.50 1011.62 1011.16 1010.37 1009.61 1009.03 1008.57 1008.33 1008.41 1008.61 1009.00 1009.09 1008.94 1008.74 1008.25
997.14 999.21 1000.69 1002.52 1003.99 1005.15 1005.78 1006.63 1007.57 1008.40 1009.10 1009.86 1010.55 1011.04 1011.40 1011.68 1011.87 1011.96 1012.19 1012.31 1012.12 1011.86 1011.68 1011.43 1011.23 1011.04 1010.84 1010.51 1010.56 1010.83 1010.91 1010.55 1009.84 1009.12 1008.48 1007.93 1008.55 1008.75 1009.09 1009.22 1008.84 1008.38 1008.39
997.09 999.46 1001.30 1002.98 1004.06 1004.96 1005.84 1006.46 1007.45 1008.54 1009.53 1010.01 1010.32 1010.69 1011.15 1011.51 1011.58 1011.84 1012.05 1012.25 1011.98 1011.67 1011.12 1010.61 1010.31 1009.57 1009.35 1009.45 1009.60 1009.85 1010.16 1010.18 1010.08 1009.56 1009.04 1008.63 1008.90 1009.02 1009.15 1009.09 1008.74 1008.51 1008.40
998.76 1000.39 1002.29 1003.55 1004.74 1005.19 1005.85 1006.74 1007.82 1009.04 1009.86 1010.32 1010.56 1010.72 1010.81 1011.30 1011.42 1011.76 1011.79 1011.25 1011.12 1010.61 1010.09 1009.77 1009.33 1009.19 1009.03 1008.93 1009.08 1009.09 1009.41 1009.41 1009.95 1009.36 1008.70 1008.62 1008.59 1008.43 1008.19 1007.88 1007.75 1007.60 1007.40
1000.88 1001.82 1003.16 1004.44 1005.66 1006.13 1006.64 1007.38 1008.58 1009.13 1009.48 1010.31 1010.19 1010.73 1011.04 1010.85 1011.18 1010.98 1010.99 1010.79 1010.33 1010.32 1010.21 1010.03 1009.60 1009.25 1009.10 1009.05 1008.82 1008.91 1009.24 1009.29 1009.44 1008.97 1008.72 1008.71 1008.33 1007.90 1007.49 1007.09 1006.52 1006.14 1005.86
1002.36 1003.13 1004.43 1005.94 1006.88 1007.21 1007.60 1008.39 1008.99 1009.75 1010.48 1011.35 1010.60 1010.40 1010.74 1010.35 1010.46 1010.34 1010.15 1010.17 1010.23 1010.15 1010.40 1010.49 1010.35 1010.05 1009.60 1009.54 1009.82 1010.04 1010.03 1010.04 1009.81 1010.18 1009.45 1008.51 1007.53 1006.63 1005.99 1005.35 1004.81 1004.35 1004.00
1004.12 1005.20 1006.29 1007.09 1007.56 1007.96 1008.56 1008.82 1008.92 1009.45 1010.18 1010.72 1010.72 1009.95 1010.43 1010.05 1009.78 1009.65 1009.37 1009.58 1009.45 1009.43 1009.76 1010.00 1010.22 1009.83 1009.65 1009.70 1009.80 1009.85 1009.79 1009.88 1010.08 1009.59 1008.75 1007.57 1006.60 1005.60 1004.91 1004.24 1003.63 1003.18 1002.84
Thickness
5847 5847 5845 5844 5842 5836 5831 5826 5820 5818 5815 5812 5810 5812 5813 5815 5812 5811 5809 5806 5803 5802 5799 5799 5797 5795 5794 5792 5789 5788 5784 5783 5786 5777 5788 5796 5795 5797 5796 5793 5784 5778 5770
5851 5850 5849 5848 5844 5840 5836 5831 5826 5822 5818 5819 5819 5822 5821 5821 5818 5815 5811 5807 5803 5802 5799 5798 5796 5795 5796 5793 5792 5788 5786 5793 5793 5781 5784 5778 5785 5793 5797 5793 5790 5784 5778
5854 5853 5852 5853 5851 5847 5842 5837 5833 5830 5826 5825 5821 5818 5818 5815 5814 5813 5812 5812 5806 5802 5800 5797 5796 5795 5794 5797 5794 5791 5787 5786 5794 5793 5780 5777 5773 5783 5794 5794 5789 5787 5783
5867 5864 5861 5858 5858 5855 5854 5847 5839 5834 5829 5826 5826 5819 5816 5812 5819 5818 5821 5818 5812 5807 5804 5801 5799 5795 5796 5795 5795 5796 5790 5788 5784 5791 5794 5792 5784 5770 5770 5787 5791 5788 5787
5877 5873 5873 5871 5869 5865 5858 5853 5844 5838 5836 5831 5827 5823 5815 5820 5820 5820 5817 5814 5814 5811 5806 5804 5801 5799 5797 5799 5797 5795 5791 5788 5784 5783 5783 5779 5775 5770 5761 5758 5777 5788 5790
5889 5883 5884 5882 5874 5873 5864 5857 5847 5839 5835 5832 5827 5823 5822 5817 5820 5818 5816 5815 5818 5817 5811 5807 5803 5799 5798 5796 5795 5794 5792 5789 5788 5787 5782 5775 5772 5769 5763 5756 5763 5766 5779
5899 5892 5885 5883 5880 5873 5867 5860 5851 5840 5839 5835 5831 5825 5821 5819 5817 5814 5815 5815 5819 5821 5819 5813 5805 5802 5799 5796 5796 5794 5792 5789 5786 5785 5782 5783 5781 5781 5776 5763 5757 5759 5776
5910 5906 5899 5891 5885 5880 5873 5864 5857 5845 5841 5836 5830 5827 5823 5822 5820 5819 5817 5817 5818 5820 5819 5814 5809 5805 5802 5799 5798 5797 5795 5795 5790 5785 5781 5780 5782 5783 5779 5764 5755 5750 5758
5913 5909 5912 5902 5891 5883 5878 5870 5862 5852 5846 5840 5832 5826 5823 5820 5821 5818 5817 5814 5813 5814 5813 5810 5807 5805 5803 5801 5799 5797 5795 5793 5789 5787 5784 5780 5776 5777 5778 5772 5760 5749 5741
5909 5909 5909 5909 5899 5890 5884 5876 5868 5858 5852 5848 5840 5833 5828 5823 5818 5813 5809 5811 5813 5815 5813 5809 5808 5806 5802 5800 5797 5796 5795 5789 5786 5786 5783 5780 5778 5777 5771 5768 5759 5753 5745
5909 5908 5908 5907 5902 5894 5888 5880 5870 5862 5855 5850 5848 5840 5833 5828 5822 5817 5814 5809 5811 5813 5812 5810 5808 5805 5801 5799 5794 5792 5791 5787 5783 5780 5778 5776 5774 5770 5768 5764 5758 5754 5749
5907 5905 5902 5901 5896 5891 5887 5879 5872 5865 5860 5852 5849 5843 5836 5830 5828 5821 5817 5816 5815 5814 5812 5810 5807 5802 5801 5799 5795 5791 5792 5787 5781 5777 5775 5771 5770 5765 5760 5761 5759 5757 5754
5901 5901 5898 5890 5884 5883 5880 5877 5871 5868 5868 5856 5848 5843 5838 5834 5830 5828 5825 5823 5817 5812 5811 5811 5805 5801 5799 5797 5794 5791 5787 5788 5784 5781 5774 5771 5769 5765 5766 5762 5765 5769 5766
5895 5899 5896 5888 5880 5878 5873 5870 5867 5868 5871 5861 5854 5847 5842 5839 5833 5829 5825 5822 5820 5815 5811 5809 5805 5802 5798 5796 5792 5790 5786 5783 5783 5782 5779 5775 5772 5769 5767 5766 5766 5766 5765
5894 5894 5890 5879 5874 5871 5868 5867 5867 5861 5861 5854 5847 5841 5835 5833 5828 5823 5819 5816 5814 5812 5811 5807 5804 5800 5798 5794 5792 5789 5786 5783 5782 5780 5778 5779 5776 5774 5770 5767 5768 5765 5763
5892 5891 5886 5877 5872 5867 5863 5861 5860 5854 5850 5841 5836 5834 5829 5826 5824 5821 5815 5812 5809 5805 5804 5802 5799 5795 5793 5788 5784 5783 5783 5783 5780 5778 5779 5780 5779 5776 5771 5767 5764 5761 5756
5891 5889 5885 5879 5876 5869 5865 5857 5855 5851 5842 5836 5833 5830 5827 5823 5820 5817 5813 5809 5806 5804 5800 5798 5795 5789 5785 5778 5775 5772 5774 5777 5776 5774 5775 5775 5780 5780 5777 5769 5766 5762 5758
5890 5887 5888 5883 5878 5874 5866 5859 5852 5843 5837 5833 5832 5828 5822 5815 5810 5805 5799 5796 5793 5789 5786 5785 5784 5782 5781 5774 5768 5765 5765 5769 5772 5774 5771 5770 5770 5770 5770 5770 5768 5767 5769
5900 5893 5891 5883 5874 5869 5860 5852 5846 5839 5833 5828 5823 5817 5812 5806 5800 5794 5791 5787 5782 5779 5777 5778 5776 5773 5770 5764 5764 5758 5759 5763 5766 5770 5772 5769 5765 5763 5760 5760 5759 5759 5761
5907 5892 5887 5877 5866 5860 5855 5844 5837 5829 5822 5817 5811 5807 5801 5795 5790 5785 5780 5779 5776 5772 5770 5766 5765 5765 5766 5763 5756 5752 5752 5753 5758 5763 5766 5765 5763 5759 5754 5753 5753 5751 5755
5907 5895 5881 5867 5859 5853 5847 5835 5829 5819 5816 5809 5801 5794 5790 5784 5780 5776 5771 5766 5765 5764 5760 5757 5757 5757 5757 5759 5754 5747 5744 5742 5744 5748 5753 5758 5751 5748 5743 5741 5745 5747 5748
5898 5884 5865 5855 5852 5846 5836 5829 5819 5814 5803 5796 5790 5784 5777 5771 5769 5765 5761 5755 5752 5750 5751 5753 5751 5755 5756 5753 5750 5743 5737 5735 5730 5733 5738 5740 5733 5732 5731 5732 5735 5734 5733
5877 5868 5852 5841 5837 5833 5827 5815 5807 5796 5785 5778 5774 5772 5769 5764 5761 5750 5747 5748 5746 5746 5745 5743 5742 5741 5743 5743 5738 5735 5730 5727 5720 5724 5728 5726 5725 5724 5725 5725 5727 5727 5730
5854 5849 5835 5826 5815 5815 5813 5804 5790 5783 5775 5760 5762 5756 5750 5750 5745 5744 5738 5734 5736 5731 5726 5722 5722 5723 5722 5720 5721 5719 5715 5713 5710 5712 5715 5712 5712 5714 5717 5720 5724 5728 5728
5836 5832 5820 5806 5797 5797 5792 5783 5776 5766 5753 5740 5744 5746 5739 5736 5729 5728 5725 5722 5719 5716 5707 5701 5697 5696 5697 5697 5691 5688 5689 5686 5688 5680 5686 5694 5700 5707 5712 5717 5722 5726 5729
5814 5805 5796 5790 5784 5780 5772 5767 5766 5756 5739 5736 5736 5732 5722 5722 5718 5713 5710 5708 5703 5701 5694 5688 5680 5682 5680 5676 5673 5669 5667 5664 5660 5668 5672 5680 5687 5694 5701 5707 5713 5719 5721